Regional Weather Roundup
Issued by NWS

Home | Current Version | Previous Version | Text Only | Print | Product List | Glossary On
Versions: 1 2 3 4 5 6 7 8 9 10 11 12 13 14 15 16 17 18 19 20 21 22 23 24 25 26 27 28 29 30 31 32 33 34 35 36 37 38 39 40 41 42 43 44 45 46 47 48 49
000
ASPQ40 PGUM 261412
RWRPQ
WEATHER ROUNDUP FOR THE MARIANAS AND MICRONESIA
NATIONAL WEATHER SERVICE TIYAN GU
1200 AM CHST THU NOV 27 2014

GUZ001>004-261500-
MARIANA ISLANDS-

CITY           SKY/WX    TMP DP  RH WIND       PRES   REMARKS
GUAM AIRPORT   PTCLDY    81  75  83 NE8       29.88F
ANDERSEN AFB   MOCLDY    81  75  83 NE17      29.88F
ROTA AIRPORT   NOT AVBL
TINIAN AP      NOT AVBL
SAIPAN AP      PTCLDY    81  73  78 E18       29.90S

$$

PMZ161-261500-
REPUBLIC OF PALAU-

CITY           SKY/WX    TMP DP  RH WIND       PRES   REMARKS
KOROR AP       MOCLDY    79  77  94 N3        29.82S
KOROR WSO      CLOUDY    81  77  89 CALM      29.81S

$$

PMZ171>174-261500-
FEDERATED STATES OF MICRONESIA-

CITY           SKY/WX    TMP DP  RH WIND       PRES   REMARKS
YAP AIRPORT    MOCLDY    81  77  89 VRB5      29.82S
CHUUK AP       CLOUDY    81  79  94 E8        29.73F
POHNPEI AP     NOT AVBL
POHNPEI WSO    NOT AVBL
KOSRAE AP      NOT AVBL

$$

PMZ181-261500-
REPUBLIC OF THE MARSHALL ISLANDS-

CITY           SKY/WX    TMP DP  RH WIND       PRES   REMARKS
KWAJALEIN AP   PTCLDY    84  73  70 NE22      29.73F HX  91
MAJURO AP      NOT AVBL
MAJURO WSO     MOCLDY    84  77  79 E13       29.70F HX  94

$$



USA.gov is the U.S. government's official web portal to all federal, state and local government web resources and services.